Flag for Honduras Weather past 2 weeks in Tegucigalpa, Honduras

Now
66 °F

Passing clouds.


Feels Like: 66 °F
Forecast: 60 / 86 °F
Wind: No wind

Location: Tegucigalpa Airport

Current Time: Feb 27, 2015 at 12:57:44 AM

Latest Report: Feb 27, 2015 at 12:00 AM


Visibility: N/A

Pressure: 30.07 "Hg

Humidity: 83%

Dew point: 61 °F

Location of TegucigalpaLocation

Historic Weather in Tegucigalpa — Graph

°F

Tegucigalpa temperature yesterday

Maximum temperature yesterday: 86 °F (at 1:00 PM)
Minimum temperature yesterday: 59 °F (at 5:00 AM)
Average temperature yesterday: 73 °F

Past Weeks' High & Low Weather Summary

 TemperatureHumidityPressure
High90 °F (Feb 17, 3:00 PM)100% (Feb 16, 5:00 AM)30.24 "Hg (Feb 16, 5:00 AM)
Low52 °F (Feb 16, 7:00 AM)24% (Feb 17, 3:00 PM)29.92 "Hg (Feb 26, 3:00 PM)
Average70 °F69%30.11 "Hg
* Reported Midnight between Feb 11 and Feb 12 — Feb 26 11:00 PM, Tegucigalpa, Weather by CustomWeather, © 2015

Note: Actual official high and low records may vary slightly from our data, if they occured in-between our weather recording intervals... More about our weather records

Advertising

Tegucigalpa weather history for previous 24 hours

 ConditionsComfort  
Time TempWeatherWind HumidityBarometerVisibility
11:00 PM
Thu, Feb 26
68 °FPassing clouds.No wind83%30.07 "HgN/A
10:00 PM70 °FPassing clouds.5 mph78%30.07 "HgN/A
9:00 PM72 °FPassing clouds.5 mph78%30.04 "HgN/A
8:00 PM75 °FPassing clouds.3 mph65%30.01 "HgN/A
7:00 PM77 °FPassing clouds.6 mph61%29.98 "HgN/A
6:00 PM82 °FPassing clouds.2 mph35%29.95 "HgN/A
5:00 PM84 °FScattered clouds.2 mph35%29.95 "HgN/A
4:00 PM86 °FScattered clouds.7 mph33%29.92 "HgN/A
3:00 PM84 °FScattered clouds.3 mph35%29.92 "HgN/A
2:00 PM86 °FScattered clouds.6 mph33%29.95 "HgN/A
1:00 PM86 °FPartly sunny.5 mph33%29.98 "HgN/A
12:00 PM84 °FScattered clouds.7 mph35%30.04 "HgN/A
11:00 AM81 °FScattered clouds.5 mph42%30.07 "HgN/A
10:00 AM79 °FScattered clouds.No wind51%30.09 "HgN/A
9:00 AM73 °FPassing clouds.3 mph69%30.09 "HgN/A
8:00 AM68 °FPassing clouds.No wind88%30.07 "HgN/A
7:00 AM59 °FScattered clouds.No wind100%30.07 "HgN/A
6:00 AM59 °FPassing clouds.No wind100%30.04 "HgN/A
5:00 AM59 °FPassing clouds.No wind100%30.01 "HgN/A
4:00 AM61 °FPassing clouds.No wind100%30.01 "HgN/A
3:00 AM61 °FPassing clouds.No wind100%30.01 "HgN/A
2:00 AM63 °FPassing clouds.3 mph94%30.01 "HgN/A
1:00 AM63 °FPassing clouds.2 mph94%30.01 "HgN/A
12:00 AM66 °FPassing clouds.5 mph83%30.04 "HgN/A
Weather by CustomWeather, © 2015

See weather overviewHow to use our weather pages